Time,TemperatureF,DewpointF,PressureIn,WindDirection,WindDirectionDegrees,WindSpeedMPH,WindSpeedGustMPH,Humidity,HourlyPrecipIn,Conditions,Clouds,dailyrainin,SoftwareType,DateUTC
2013-01-18 00:04:00,27.0,6.0,-100.00,ENE,60,3.0,10.0,40,0.00,,,-99.99,,2013-01-18 05:04:00,
2013-01-18 00:12:00,27.0,6.0,-100.00,East,80,1.0,8.0,39,0.00,,,-99.99,,2013-01-18 05:12:00,
2013-01-18 00:22:00,27.0,3.0,-100.00,NW,325,7.0,11.0,34,0.00,,,-99.99,,2013-01-18 05:22:00,
2013-01-18 00:33:00,27.0,4.0,-100.00,NNE,15,4.0,12.0,36,0.00,,,-99.99,,2013-01-18 05:33:00,
2013-01-18 00:43:00,27.0,3.0,-100.00,ENE,65,3.0,7.0,35,0.00,,,-99.99,,2013-01-18 05:43:00,
2013-01-18 00:53:00,27.0,3.0,-100.00,North,355,4.0,7.0,35,0.00,,,-99.99,,2013-01-18 05:53:00,
2013-01-18 01:02:00,27.0,2.0,-100.00,NNW,340,3.0,8.0,34,0.00,,,-99.99,,2013-01-18 06:02:00,
2013-01-18 01:12:00,27.0,3.0,-100.00,North,350,4.0,7.0,35,0.00,,,-99.99,,2013-01-18 06:12:00,
2013-01-18 01:22:00,26.0,3.0,-100.00,NE,45,2.0,6.0,36,0.00,,,-99.99,,2013-01-18 06:22:00,
2013-01-18 01:33:00,26.0,4.0,-100.00,North,5,2.0,7.0,37,0.00,,,-99.99,,2013-01-18 06:33:00,
2013-01-18 01:43:00,26.0,3.0,-100.00,North,350,1.0,5.0,35,0.00,,,-99.99,,2013-01-18 06:43:00,
2013-01-18 01:52:00,26.0,1.0,-100.00,NE,45,3.0,10.0,33,0.00,,,-99.99,,2013-01-18 06:52:00,
2013-01-18 02:02:00,26.0,3.0,-100.00,ENE,65,4.0,11.0,37,0.00,,,-99.99,,2013-01-18 07:02:00,
2013-01-18 02:12:00,25.0,4.0,-100.00,ENE,60,4.0,9.0,39,0.00,,,-99.99,,2013-01-18 07:12:00,
2013-01-18 02:22:00,24.0,4.0,-100.00,NE,40,5.0,14.0,40,0.00,,,-99.99,,2013-01-18 07:22:00,
2013-01-18 02:33:00,24.0,2.0,-100.00,ENE,60,3.0,9.0,37,0.00,,,-99.99,,2013-01-18 07:33:00,
2013-01-18 02:42:00,24.0,1.0,-100.00,ENE,65,6.0,13.0,37,0.00,,,-99.99,,2013-01-18 07:42:00,
2013-01-18 02:52:00,23.0,-1.0,-100.00,NE,45,2.0,12.0,35,0.00,,,-99.99,,2013-01-18 07:52:00,
2013-01-18 03:02:00,22.0,-1.0,-100.00,NE,50,3.0,10.0,35,0.00,,,-99.99,,2013-01-18 08:02:00,
2013-01-18 03:12:00,22.0,-2.0,-100.00,ENE,65,3.0,7.0,34,0.00,,,-99.99,,2013-01-18 08:12:00,
2013-01-18 03:22:00,22.0,-4.0,-100.00,NE,40,4.0,12.0,31,0.00,,,-99.99,,2013-01-18 08:22:00,
2013-01-18 03:32:00,21.0,-4.0,-100.00,NNE,25,5.0,11.0,31,0.00,,,-99.99,,2013-01-18 08:32:00,
2013-01-18 03:42:00,21.0,-2.0,-100.00,NE,40,6.0,17.0,35,0.00,,,-99.99,,2013-01-18 08:42:00,
2013-01-18 03:53:00,20.0,-1.0,-100.00,North,5,4.0,12.0,39,0.00,,,-99.99,,2013-01-18 08:53:00,
2013-01-18 04:03:00,20.0,1.0,-100.00,NE,35,3.0,12.0,43,0.00,,,-99.99,,2013-01-18 09:03:00,
2013-01-18 04:12:00,20.0,0.0,-100.00,ENE,60,6.0,16.0,41,0.00,,,-99.99,,2013-01-18 09:12:00,
2013-01-18 04:22:00,20.0,-1.0,-100.00,ENE,60,4.0,12.0,40,0.00,,,-99.99,,2013-01-18 09:22:00,
2013-01-18 04:33:00,20.0,0.0,-100.00,NNE,25,2.0,7.0,42,0.00,,,-99.99,,2013-01-18 09:33:00,
2013-01-18 04:42:00,19.0,-1.0,-100.00,ENE,65,6.0,12.0,40,0.00,,,-99.99,,2013-01-18 09:42:00,
2013-01-18 04:52:00,18.0,-1.0,-100.00,NE,50,4.0,7.0,41,0.00,,,-99.99,,2013-01-18 09:52:00,
2013-01-18 05:03:00,18.0,-2.0,-100.00,NE,50,4.0,10.0,39,0.00,,,-99.99,,2013-01-18 10:03:00,
2013-01-18 05:12:00,18.0,-2.0,-100.00,East,85,3.0,12.0,39,0.00,,,-99.99,,2013-01-18 10:12:00,
2013-01-18 05:22:00,18.0,-3.0,-100.00,NNE,30,4.0,10.0,39,0.00,,,-99.99,,2013-01-18 10:22:00,
2013-01-18 05:33:00,17.0,-5.0,-100.00,North,10,3.0,15.0,36,0.00,,,-99.99,,2013-01-18 10:33:00,
2013-01-18 05:43:00,17.0,-5.0,-100.00,NE,40,4.0,11.0,36,0.00,,,-99.99,,2013-01-18 10:43:00,
2013-01-18 05:52:00,16.0,-5.0,-100.00,ENE,65,2.0,11.0,37,0.00,,,-99.99,,2013-01-18 10:52:00,
2013-01-18 06:03:00,16.0,-5.0,-100.00,North,0,2.0,7.0,38,0.00,,,-99.99,,2013-01-18 11:03:00,
2013-01-18 06:12:00,16.0,-5.0,-100.00,ENE,60,2.0,7.0,39,0.00,,,-99.99,,2013-01-18 11:12:00,
2013-01-18 06:23:00,15.0,-5.0,-100.00,ENE,60,4.0,9.0,38,0.00,,,-99.99,,2013-01-18 11:23:00,
2013-01-18 06:33:00,15.0,-5.0,-100.00,NE,50,3.0,7.0,38,0.00,,,-99.99,,2013-01-18 11:33:00,
2013-01-18 06:42:00,15.0,-6.0,-100.00,North,10,2.0,6.0,39,0.00,,,-99.99,,2013-01-18 11:42:00,
2013-01-18 06:52:00,15.0,-5.0,-100.00,NNE,30,1.0,6.0,40,0.00,,,-99.99,,2013-01-18 11:52:00,
2013-01-18 07:03:00,14.0,-6.0,-100.00,ENE,60,3.0,6.0,39,0.00,,,-99.99,,2013-01-18 12:03:00,
2013-01-18 07:12:00,14.0,-6.0,-100.00,NNW,345,2.0,8.0,39,0.00,,,-99.99,,2013-01-18 12:12:00,
2013-01-18 07:23:00,14.0,-6.0,-100.00,East,90,1.0,6.0,40,0.00,,,-99.99,,2013-01-18 12:23:00,
2013-01-18 07:33:00,13.0,-7.0,-100.00,NNE,30,2.0,6.0,40,0.00,,,-99.99,,2013-01-18 12:33:00,
2013-01-18 07:43:00,13.0,-7.0,-100.00,NE,35,4.0,7.0,40,0.00,,,-99.99,,2013-01-18 12:43:00,
2013-01-18 07:52:00,13.0,-7.0,-100.00,North,5,1.0,7.0,39,0.00,,,-99.99,,2013-01-18 12:52:00,
2013-01-18 08:03:00,13.0,-7.0,-100.00,North,0,2.0,7.0,39,0.00,,,-99.99,,2013-01-18 13:03:00,
2013-01-18 08:12:00,13.0,-7.0,-100.00,NNE,20,3.0,7.0,39,0.00,,,-99.99,,2013-01-18 13:12:00,
2013-01-18 08:23:00,13.0,-7.0,-100.00,NE,50,2.0,7.0,39,0.00,,,-99.99,,2013-01-18 13:23:00,
2013-01-18 08:33:00,13.0,-7.0,-100.00,NNW,335,4.0,11.0,38,0.00,,,-99.99,,2013-01-18 13:33:00,
2013-01-18 08:43:00,14.0,-7.0,-100.00,NW,315,4.0,8.0,39,0.00,,,-99.99,,2013-01-18 13:43:00,
2013-01-18 08:53:00,14.0,-7.0,-100.00,NNE,15,1.0,9.0,38,0.00,,,-99.99,,2013-01-18 13:53:00,
2013-01-18 09:03:00,15.0,-6.0,-100.00,East,90,3.0,9.0,38,0.00,,,-99.99,,2013-01-18 14:03:00,
2013-01-18 09:13:00,15.0,-6.0,-100.00,North,5,4.0,9.0,38,0.00,,,-99.99,,2013-01-18 14:13:00,
2013-01-18 09:23:00,15.0,-6.0,-100.00,NNW,340,6.0,12.0,37,0.00,,,-99.99,,2013-01-18 14:23:00,
2013-01-18 09:34:00,15.0,-8.0,-100.00,NNE,15,4.0,12.0,34,0.00,,,-99.99,,2013-01-18 14:34:00,
2013-01-18 09:43:00,15.0,-8.0,-100.00,NNW,340,6.0,14.0,33,0.00,,,-99.99,,2013-01-18 14:43:00,
2013-01-18 09:53:00,16.0,-8.0,-100.00,North,10,4.0,13.0,32,0.00,,,-99.99,,2013-01-18 14:53:00,
2013-01-18 10:03:00,16.0,-9.0,-100.00,North,10,3.0,14.0,30,0.00,,,-99.99,,2013-01-18 15:03:00,
2013-01-18 10:13:00,16.0,-9.0,-100.00,NW,320,3.0,12.0,31,0.00,,,-99.99,,2013-01-18 15:13:00,
2013-01-18 10:23:00,17.0,-7.0,-100.00,NW,325,2.0,10.0,32,0.00,,,-99.99,,2013-01-18 15:23:00,
2013-01-18 10:34:00,16.0,-9.0,-100.00,NNW,345,9.0,16.0,30,0.00,,,-99.99,,2013-01-18 15:34:00,
2013-01-18 10:43:00,17.0,-8.0,-100.00,NNW,340,5.0,15.0,31,0.00,,,-99.99,,2013-01-18 15:43:00,
2013-01-18 10:53:00,18.0,-7.0,-100.00,ENE,70,4.0,13.0,32,0.00,,,-99.99,,2013-01-18 15:53:00,
2013-01-18 11:03:00,17.0,-8.0,-100.00,North,350,5.0,11.0,31,0.00,,,-99.99,,2013-01-18 16:03:00,
2013-01-18 11:13:00,18.0,-7.0,-100.00,NNW,330,5.0,14.0,32,0.00,,,-99.99,,2013-01-18 16:13:00,
2013-01-18 11:23:00,18.0,-6.0,-100.00,NNW,345,6.0,14.0,32,0.00,,,-99.99,,2013-01-18 16:23:00,
2013-01-18 11:33:00,20.0,-6.0,-100.00,NW,315,3.0,15.0,31,0.00,,,-99.99,,2013-01-18 16:33:00,
2013-01-18 11:43:00,20.0,-6.0,-100.00,North,10,3.0,12.0,31,0.00,,,-99.99,,2013-01-18 16:43:00,
2013-01-18 11:52:00,19.0,-7.0,-100.00,NNW,335,9.0,16.0,30,0.00,,,-99.99,,2013-01-18 16:52:00,
2013-01-18 12:03:00,20.0,-7.0,-100.00,North,0,6.0,16.0,30,0.00,,,-99.99,,2013-01-18 17:03:00,
2013-01-18 12:13:00,19.0,-7.0,-100.00,NNW,340,11.0,18.0,29,0.00,,,-99.99,,2013-01-18 17:13:00,
2013-01-18 12:23:00,20.0,-7.0,-100.00,ENE,65,6.0,17.0,29,0.00,,,-99.99,,2013-01-18 17:23:00,
2013-01-18 12:34:00,21.0,-6.0,-100.00,NNW,335,5.0,19.0,29,0.00,,,-99.99,,2013-01-18 17:34:00,
2013-01-18 12:43:00,20.0,-7.0,-100.00,NNW,330,12.0,22.0,29,0.00,,,-99.99,,2013-01-18 17:43:00,
2013-01-18 12:53:00,20.0,-7.0,-100.00,NNW,335,12.0,22.0,28,0.00,,,-99.99,,2013-01-18 17:53:00,
2013-01-18 13:03:00,22.0,-5.0,-100.00,North,355,4.0,15.0,29,0.00,,,-99.99,,2013-01-18 18:03:00,
2013-01-18 13:13:00,21.0,-7.0,-100.00,NNW,335,11.0,22.0,28,0.00,,,-99.99,,2013-01-18 18:13:00,
2013-01-18 13:23:00,21.0,-6.0,-100.00,NNW,345,7.0,21.0,28,0.00,,,-99.99,,2013-01-18 18:23:00,
2013-01-18 13:33:00,22.0,-6.0,-100.00,NW,325,6.0,16.0,28,0.00,,,-99.99,,2013-01-18 18:33:00,
2013-01-18 13:43:00,22.0,-6.0,-100.00,NNW,340,11.0,17.0,27,0.00,,,-99.99,,2013-01-18 18:43:00,
2013-01-18 13:52:00,22.0,-7.0,-100.00,NNW,340,11.0,17.0,26,0.00,,,-99.99,,2013-01-18 18:52:00,
2013-01-18 14:03:00,23.0,-6.0,-100.00,NNW,345,7.0,17.0,27,0.00,,,-99.99,,2013-01-18 19:03:00,
2013-01-18 14:13:00,23.0,-7.0,-100.00,North,10,4.0,18.0,25,0.00,,,-99.99,,2013-01-18 19:13:00,
2013-01-18 14:23:00,23.0,-7.0,-100.00,NNW,345,6.0,19.0,25,0.00,,,-99.99,,2013-01-18 19:23:00,
2013-01-18 14:33:00,23.0,-7.0,-100.00,NW,305,9.0,16.0,25,0.00,,,-99.99,,2013-01-18 19:33:00,
2013-01-18 14:43:00,23.0,-7.0,-100.00,North,350,7.0,16.0,25,0.00,,,-99.99,,2013-01-18 19:43:00,
2013-01-18 14:52:00,23.0,-8.0,-100.00,NNW,340,11.0,21.0,24,0.00,,,-99.99,,2013-01-18 19:52:00,
2013-01-18 15:03:00,23.0,-8.0,-100.00,NNW,335,13.0,24.0,24,0.00,,,-99.99,,2013-01-18 20:03:00,
2013-01-18 15:13:00,23.0,-7.0,-100.00,NNW,330,10.0,21.0,25,0.00,,,-99.99,,2013-01-18 20:13:00,
2013-01-18 15:23:00,23.0,-7.0,-100.00,NNW,335,9.0,18.0,25,0.00,,,-99.99,,2013-01-18 20:23:00,
2013-01-18 15:33:00,23.0,-7.0,-100.00,NNW,330,13.0,18.0,25,0.00,,,-99.99,,2013-01-18 20:33:00,
2013-01-18 15:43:00,24.0,-6.0,-100.00,NNE,15,3.0,19.0,26,0.00,,,-99.99,,2013-01-18 20:43:00,
2013-01-18 15:53:00,23.0,-7.0,-100.00,NNW,340,7.0,12.0,25,0.00,,,-99.99,,2013-01-18 20:53:00,
2013-01-18 16:03:00,23.0,-7.0,-100.00,NW,325,7.0,12.0,26,0.00,,,-99.99,,2013-01-18 21:03:00,
2013-01-18 16:13:00,23.0,-6.0,-100.00,NNW,340,9.0,14.0,27,0.00,,,-99.99,,2013-01-18 21:13:00,
2013-01-18 16:23:00,23.0,-4.0,-100.00,NW,315,4.0,13.0,29,0.00,,,-99.99,,2013-01-18 21:23:00,
2013-01-18 16:33:00,22.0,-6.0,-100.00,NNW,335,8.0,14.0,28,0.00,,,-99.99,,2013-01-18 21:33:00,
2013-01-18 16:43:00,22.0,-6.0,-100.00,NW,315,7.0,16.0,28,0.00,,,-99.99,,2013-01-18 21:43:00,
2013-01-18 16:52:00,22.0,-6.0,-100.00,NNW,330,7.0,12.0,28,0.00,,,-99.99,,2013-01-18 21:52:00,
2013-01-18 17:03:00,22.0,-5.0,-100.00,NW,325,6.0,10.0,29,0.00,,,-99.99,,2013-01-18 22:03:00,
2013-01-18 17:12:00,22.0,-5.0,-100.00,NW,320,6.0,9.0,29,0.00,,,-99.99,,2013-01-18 22:12:00,
2013-01-18 17:23:00,22.0,-5.0,-100.00,NNW,330,6.0,10.0,30,0.00,,,-99.99,,2013-01-18 22:23:00,
2013-01-18 17:33:00,21.0,-5.0,-100.00,NW,325,4.0,7.0,30,0.00,,,-99.99,,2013-01-18 22:33:00,
2013-01-18 17:43:00,21.0,-5.0,-100.00,NW,320,2.0,7.0,31,0.00,,,-99.99,,2013-01-18 22:43:00,
2013-01-18 17:52:00,21.0,-4.0,-100.00,West,270,2.0,4.0,32,0.00,,,-99.99,,2013-01-18 22:52:00,
2013-01-18 18:03:00,20.0,-4.0,-100.00,WNW,300,1.0,4.0,32,0.00,,,-99.99,,2013-01-18 23:03:00,
2013-01-18 18:12:00,20.0,-4.0,-100.00,West,270,1.0,4.0,33,0.00,,,-99.99,,2013-01-18 23:12:00,
2013-01-18 18:23:00,20.0,-3.0,-100.00,NW,305,1.0,3.0,35,0.00,,,-99.99,,2013-01-18 23:23:00,
2013-01-18 18:33:00,20.0,-3.0,-100.00,NW,305,2.0,4.0,35,0.00,,,-99.99,,2013-01-18 23:33:00,
2013-01-18 18:43:00,20.0,-3.0,-100.00,NW,310,2.0,7.0,36,0.00,,,-99.99,,2013-01-18 23:43:00,
2013-01-18 18:52:00,20.0,-2.0,-100.00,West,260,1.0,4.0,37,0.00,,,-99.99,,2013-01-18 23:52:00,
2013-01-18 19:03:00,20.0,-2.0,-100.00,SSW,200,1.0,4.0,37,0.00,,,-99.99,,2013-01-19 00:03:00,
2013-01-18 19:13:00,19.0,-1.0,-100.00,SW,215,2.0,4.0,39,0.00,,,-99.99,,2013-01-19 00:13:00,
2013-01-18 19:23:00,19.0,-2.0,-100.00,West,265,1.0,3.0,39,0.00,,,-99.99,,2013-01-19 00:23:00,
2013-01-18 19:33:00,19.0,-1.0,-100.00,WSW,250,1.0,4.0,41,0.00,,,-99.99,,2013-01-19 00:33:00,
2013-01-18 19:43:00,18.0,-1.0,-100.00,West,270,1.0,2.0,41,0.00,,,-99.99,,2013-01-19 00:43:00,
2013-01-18 19:53:00,18.0,0.0,-100.00,WSW,250,2.0,3.0,42,0.00,,,-99.99,,2013-01-19 00:53:00,
2013-01-18 20:03:00,18.0,0.0,-100.00,SSW,205,2.0,4.0,43,0.00,,,-99.99,,2013-01-19 01:03:00,
2013-01-18 20:12:00,18.0,0.0,-100.00,South,190,2.0,5.0,43,0.00,,,-99.99,,2013-01-19 01:12:00,
2013-01-18 20:23:00,18.0,0.0,-100.00,WSW,240,2.0,4.0,44,0.00,,,-99.99,,2013-01-19 01:23:00,
2013-01-18 20:33:00,18.0,0.0,-100.00,SSW,210,2.0,4.0,44,0.00,,,-99.99,,2013-01-19 01:33:00,
2013-01-18 20:43:00,18.0,0.0,-100.00,SW,215,2.0,5.0,45,0.00,,,-99.99,,2013-01-19 01:43:00,
2013-01-18 20:52:00,18.0,0.0,-100.00,SSW,195,2.0,5.0,45,0.00,,,-99.99,,2013-01-19 01:52:00,
2013-01-18 21:03:00,17.0,1.0,-100.00,SSW,205,2.0,4.0,47,0.00,,,-99.99,,2013-01-19 02:03:00,
2013-01-18 21:12:00,17.0,1.0,-100.00,SSW,195,2.0,4.0,48,0.00,,,-99.99,,2013-01-19 02:12:00,
2013-01-18 21:23:00,17.0,2.0,-100.00,SSW,200,2.0,4.0,49,0.00,,,-99.99,,2013-01-19 02:23:00,
2013-01-18 21:33:00,17.0,2.0,-100.00,SSW,205,2.0,4.0,51,0.00,,,-99.99,,2013-01-19 02:33:00,
2013-01-18 21:43:00,17.0,2.0,-100.00,SSW,195,3.0,6.0,50,0.00,,,-99.99,,2013-01-19 02:43:00,
2013-01-18 21:53:00,17.0,1.0,-100.00,SSW,195,3.0,6.0,49,0.00,,,-99.99,,2013-01-19 02:53:00,
2013-01-18 22:03:00,17.0,2.0,-100.00,SW,235,2.0,4.0,50,0.00,,,-99.99,,2013-01-19 03:03:00,
2013-01-18 22:12:00,17.0,2.0,-100.00,SW,235,2.0,4.0,52,0.00,,,-99.99,,2013-01-19 03:12:00,
2013-01-18 22:23:00,17.0,2.0,-100.00,SW,230,2.0,5.0,51,0.00,,,-99.99,,2013-01-19 03:23:00,
2013-01-18 22:33:00,17.0,2.0,-100.00,SSW,210,3.0,5.0,50,0.00,,,-99.99,,2013-01-19 03:33:00,
2013-01-18 22:43:00,17.0,2.0,-100.00,South,180,2.0,4.0,51,0.00,,,-99.99,,2013-01-19 03:43:00,
2013-01-18 22:52:00,17.0,2.0,-100.00,SSW,195,3.0,5.0,51,0.00,,,-99.99,,2013-01-19 03:52:00,
2013-01-18 23:02:00,17.0,2.0,-100.00,SSW,205,3.0,6.0,50,0.00,,,-99.99,,2013-01-19 04:02:00,
2013-01-18 23:12:00,17.0,2.0,-100.00,South,180,4.0,6.0,50,0.00,,,-99.99,,2013-01-19 04:12:00,
2013-01-18 23:22:00,17.0,3.0,-100.00,SSW,200,3.0,6.0,52,0.00,,,-99.99,,2013-01-19 04:22:00,
2013-01-18 23:33:00,17.0,3.0,-100.00,SSW,205,3.0,5.0,52,0.00,,,-99.99,,2013-01-19 04:33:00,
2013-01-18 23:42:00,18.0,3.0,-100.00,SW,220,2.0,4.0,51,0.00,,,-99.99,,2013-01-19 04:42:00,
2013-01-18 23:52:00,18.0,4.0,-100.00,SSW,200,3.0,6.0,51,0.00,,,-99.99,,2013-01-19 04:52:00,